Regional Weather Roundup
Issued by NWS

Home | Current Version | Previous Version | Graphics & Text | Print | Product List | Glossary Off
Versions: 1 2 3 4 5 6 7 8 9 10 11 12 13 14 15 16 17 18 19 20 21 22 23 24 25 26 27 28 29 30 31 32 33 34 35 36 37 38 39 40 41 42 43 44 45 46 47 48 49 50

000
ASUS43 KMPX 290810
RWRMN
WEATHER ROUNDUP FOR MINNESOTA
NATIONAL WEATHER SERVICE TWIN CITIES/CHANHASSEN MN
300 AM CDT FRI MAY 29 2015


NOTE: "FAIR" INDICATES FEW OR NO CLOUDS BELOW 12,000 FEET WITH NO
SIGNIFICANT WEATHER AND/OR OBSTRUCTIONS TO VISIBILITY. N/A MEANS
CURRENT SKY AND/OR WEATHER CONDITIONS ARE NOT AVAILABLE.

MNZ060>063-068>070-290900-
   Twin Cities Metro

CITY           SKY/WX    TMP DP  RH WIND       PRES   REMARKS
TWIN CITIES    LGT RAIN  67  62  84 S13       29.89F
ST PAUL        LGT RAIN  65  61  87 S8        29.90F
CRYSTAL        CLOUDY    70  60  70 S12       29.87S
BLAINE         CLOUDY    70  61  73 S9        29.88S
LAKEVILLE      DRIZZLE   64  63  94 CALM      29.90F
EDEN PRAIRIE   CLOUDY    67  62  84 S12       29.87F
SOUTH ST PAUL  LGT RAIN  67  59  76 S3        29.90S
LAKE ELMO      MOCLDY    66  59  77 SE9       29.90F
$$
MNZ001>005-007-008-013>017-022>024-027-028-290900-
   Northwest Minnesota

CITY           SKY/WX    TMP DP  RH WIND       PRES   REMARKS
BEMIDJI        RAIN      58  57  96 W5        29.86S
HALLOCK        CLOUDY    52  46  82 N26G32    29.95R
ROSEAU         CLOUDY    55  52  88 N10       29.89R
WARROAD        CLOUDY    57  54  88 NW9G16    29.88R
THIEF RVR FALL CLOUDY    59  55  88 N18G24    29.88R
CROOKSTON      CLOUDY    59  55  88 N24G30    29.89R
FOSSTON        LGT RAIN  59  57  94 SW8       29.87S
DETROIT LAKES  LGT RAIN  59  59 100 W3        29.87F
MOORHEAD       LGT RAIN  61  61 100 CALM      29.86R
PARK RAPIDS    CLOUDY    60  58  92 NW8       29.84F
MAHNOMEN       CLOUDY    60  58  94 SW7       29.85F
$$
MNZ006-009>011-018-025>026-290900-
   North Central Minnesota

CITY           SKY/WX    TMP DP  RH WIND       PRES   REMARKS
BAUDETTE       CLOUDY    60  58  92 NW16G23   29.83S
FLAG ISLAND    CLOUDY    57  54  88 N17       29.86R
INTL FALLS     LGT RAIN  59  57  93 VRB3      29.82F
WASKISH        HVY RAIN  61  61 100 SW12      29.84F
BIG FORK       LGT RAIN  61  59  94 CALM      29.84F
LONGVILLE      LGT RAIN  61  59  94 CALM      29.83F
GRAND RAPIDS   CLOUDY    61  54  77 CALM      29.84F
CRANE LAKE     CLOUDY    55  55 100 CALM      29.84F FOG
ORR            CLOUDY    57  54  88 CALM      29.81F
COOK           DRIZZLE   61  50  67 SW3       29.85S
WALKER         FAIR      58  57  98 CALM      29.84F
$$
MNZ012-019>021-037-290900-
   Northeast Minnesota

CITY           SKY/WX    TMP DP  RH WIND       PRES   REMARKS
DULUTH         CLOUDY    49  44  83 CALM      29.88S
HIBBING        CLOUDY    53  47  79 CALM      29.86F
EVELETH        MOCLDY    55  50  82 SW3       29.87F
DULUTH HARBOR  CLOUDY    43  41  93 NE5       29.91S
TWO HARBORS    CLOUDY    46  43  87 CALM      29.88S
SILVER BAY     CLOUDY    45  43  93 CALM      29.88F
GRAND MARAIS     N/A     40  38  93 CALM      29.89F
G MARAIS ARPRT CLOUDY    54  46  76 S6        29.91F
$$
MNZ029>031-032-039>041-046>048-054>057-064-290900-
   West Central Minnesota

CITY           SKY/WX    TMP DP  RH WIND       PRES   REMARKS
FERGUS FALLS   CLOUDY    61  61 100 NW6       29.87S
WHEATON        LGT RAIN  59  57  94 CALM      29.83F
MORRIS         CLOUDY    61  61 100 S6        29.83F
ALEXANDRIA     CLOUDY    60  58  92 SE7       29.85F
ELBOW LAKE     MOCLDY    59  58  98 SW3       29.85R
WADENA         CLOUDY    59  57  94 CALM      29.83F
GLENWOOD       MOCLDY    59  55  88 SE6       29.85F
APPLETON       LGT RAIN  63  59  88 SE7       29.84F
BENSON         CLOUDY    63  55  77 S7        29.85F
ORTONVILLE     CLOUDY    61  57  88 SE6       29.82F
MADISON        CLOUDY    63  61  94 E9        29.85F
WILLMAR        CLOUDY    64  61  88 CALM      29.88F
$$
MNZ033>034-036-042>043-049>051-058-059-290900-
   Central Minnesota

CITY           SKY/WX    TMP DP  RH WIND       PRES   REMARKS
ST CLOUD       CLOUDY    65  59  81 SW5       29.87F
SAUK CENTRE    FAIR      58  56  93 SE5       29.85F
PAYNESVILLE    MOCLDY    62  58  87 SE5       29.87F
AITKIN         CLOUDY    63  55  77 SE5       29.83F
PINE RIVER     CLOUDY    59  59 100 CALM      29.87F
BRAINERD       CLOUDY    62  57  83 CALM      29.84F
STAPLES        CLOUDY    59  57  94 CALM      29.84S
LONG PRAIRIE   FAIR      59  55  88 E5        29.84F
LITTLE FALLS   MOCLDY    61  55  82 CALM      29.84F
LITCHFIELD     CLOUDY    66  63  88 CALM      29.88F
BUFFALO        CLOUDY    66  59  79 CALM      29.89S
MAPLE LAKE     CLOUDY    67  62  83 CALM      29.89F
$$
MNZ037-044-045-052-053-290900-
   East Central Minnesota

CITY           SKY/WX    TMP DP  RH WIND       PRES   REMARKS
PRINCETON      CLOUDY    66  61  82 CALM      29.88F
MORA           CLOUDY    63  55  77 CALM      29.90S
CAMBRIDGE      PTCLDY    68  55  64 CALM      29.87R
RUSH CITY      CLOUDY    63  56  77 CALM      29.89R
MOOSE LAKE     MOCLDY    45  43  93 CALM      29.87R
HINCKLEY       PTSUNNY   63  55  77 CALM      29.89R
CLOQUET        CLOUDY    45  43  93 CALM      29.89R
MCGREGOR       MOCLDY    59  52  77 SE5       29.86F
$$
MNZ071>073-080-081-089-090-097-098-290900-
   Southwest Minnesota

CITY           SKY/WX    TMP DP  RH WIND       PRES   REMARKS
MONTEVIDEO     DRIZZLE   63  59  88 E7        29.87F
GRANITE FALLS  CLOUDY    65  60  83 NE3       29.88S
CANBY          CLOUDY    62  60  94 W8        29.90R
MARSHALL       CLOUDY    64  57  77 N8        29.86R
REDWOOD FALLS  MOCLDY    65  61  87 S5        29.85S
OLIVIA         CLOUDY    63  57  82 SE5       29.86F
PIPESTONE      CLOUDY    64  63  94 S14       29.86S
WINDOM         MOCLDY    66  63  88 S15G23    29.87F
WORTHINGTON    CLOUDY    64  61  88 S10       29.89F
JACKSON        MOCLDY    64  63  94 S10G16    29.90S
TRACY          PTCLDY    65  63  91 S13G18    29.85S
SLAYTON        CLOUDY    64  63  97 S9        29.88S
$$
MNZ065>067-074>077-082>085-091>093-290900-
   South Central Minnesota

CITY           SKY/WX    TMP DP  RH WIND       PRES   REMARKS
MANKATO        MOCLDY    66  61  82 S7        29.88F
NEW ULM        MOCLDY    64  63  94 S9        29.87S
ST JAMES       MOCLDY    66  64  94 S8        29.88F
FAIRMONT       CLOUDY    66  61  82 S13       29.89F
GLENCOE        MOCLDY    68  64  86 S5        29.87S
FARIBAULT      LGT RAIN  64  63  94 SE6       29.91S
OWATONNA       LGT RAIN  66  61  82 S7        29.92S
WASECA         RAIN      64  59  82 SE7       29.91F
ALBERT LEA     CLOUDY    66  61  82 S5        29.92S
$$
MNZ078>079-086>088-094>096-290900-
   Southeast Minnesota

CITY           SKY/WX    TMP DP  RH WIND       PRES   REMARKS
ROCHESTER      CLOUDY    65  59  81 S8        29.95F
RED WING       LGT RAIN  64  61  88 SE8       29.91F
STANTON        CLOUDY    66  60  80 SE8       29.90F
DODGE CENTER   CLOUDY    64  61  88 SE8       29.93F
WINONA         LGT RAIN  66  61  82 SE3       29.96S
AUSTIN         CLOUDY    64  61  88 S7        29.93F
PRESTON        CLOUDY    64  58  82 S10       29.96F
$$
ABBREVIATIONS USED IN REMARKS
   TC - TEMPERATURES IN CELSIUS
  WCI - WIND CHILL INDEX
   HX - HEAT INDEX
  VSB - VISIBILITY
$$



USA.gov is the U.S. government's official web portal to all federal, state and local government web resources and services.